Location: Campestrin
(46.4667°N, 11.7167°E)
Time: 04:12:13
(UTC+00:00)

Cosmos 2184 Rocket - Pass Details

Date: 18 April 2021
Orbit: 959 x 1002 km, 82.9° (Epoch: 16 May)

Event Time Altitude Azimuth Distance (km) Brightness Sun altitude
Rises 23:04:14 0° 353° (N) 3,728 8.2 -32.3°
Reaches altitude 10° 23:06:49 10° 356° (N) 2,770 7.2 -32.4°
Enters shadow 23:12:35 63° 49° (NE) 1,098 4.3 -32.4°
